This is the latest recevied weather packets stored in our database for station/object BM1CCR-13. If no packets are shown the sender has not sent any weather packets the latest 10 day(s).
| Time | Temp. | Humidity | Pressure | Rain* | Wind** | Luminosity | Snow |
|---|---|---|---|---|---|---|---|
| 1778133987 | 32.78° C | 53% | 1000.1 hPa | 0 mm | - | - | - |
| 1778133980 | 31.67° C | 53% | 1000.1 hPa | 0 mm | - | - | - |
| 1778133680 | 31.67° C | 55% | 1000 hPa | 0 mm | - | - | - |
| 1778133388 | 31.67° C | 56% | 1000.1 hPa | 0 mm | - | - | - |
| 1778133380 | 31.67° C | 56% | 1000.2 hPa | 0 mm | - | - | - |
| 1778133088 | 30.56° C | 55% | 1000.2 hPa | 0 mm | - | - | - |
| 1778133079 | 30.56° C | 55% | 1000.3 hPa | 0 mm | - | - | - |
| 1778132780 | 31.67° C | 53% | 1000.3 hPa | 0 mm | - | - | - |
| 1778132489 | 31.67° C | 54% | 1000.3 hPa | 0 mm | - | - | - |
| 1778132480 | 31.67° C | 54% | 1000.4 hPa | 0 mm | - | - | - |
| 1778132189 | 31.67° C | 53% | - | 0 mm | - | - | - |
| 1778132180 | 31.67° C | 53% | 1000.3 hPa | 0 mm | - | - | - |
| 1778131880 | 31.67° C | 55% | 1000.4 hPa | 0 mm | - | - | - |
| 1778131589 | 30.56° C | 57% | 1000.4 hPa | 0 mm | - | - | - |
| 1778131580 | 30.56° C | 58% | 1000.4 hPa | 0 mm | - | - | - |
| 1778131280 | 30.56° C | 61% | 1000.5 hPa | 0 mm | - | - | - |
| 1778130988 | 30° C | 61% | 1000.5 hPa | 0 mm | - | - | - |
| 1778130980 | 30° C | 61% | 1000.6 hPa | 0 mm | - | - | - |
| 1778130680 | 30.56° C | 58% | 1000.6 hPa | 0 mm | - | - | - |
| 1778130389 | 31.67° C | 56% | 1000.9 hPa | 0 mm | - | - | - |
| 1778130380 | 31.67° C | 56% | 1000.7 hPa | 0 mm | - | - | - |
| 1778130089 | 31.67° C | 56% | 1000.8 hPa | 0 mm | - | - | - |
| 1778130080 | 31.67° C | 56% | 1000.7 hPa | 0 mm | - | - | - |
| 1778129789 | 30.56° C | 57% | 1000.7 hPa | 0 mm | - | - | - |
| 1778129780 | 30.56° C | 57% | 1000.8 hPa | 0 mm | - | - | - |
* Rain latest hour (hover to see other rain measurements)
** Current wind speed in m/s (hover to see current wind gust speed)